Probability
0 0 0 0 0 0 0 0 3 0 3 3 3 0 0 0 3 3 13 10 13 23 26 29 52 52 48 61 61 74 55 71 74 77 81 81 81 81 77 71 68 71 68
0 0 0 0 0 0 0 0 0 3 3 0 0 3 3 0 3 3 6 13 10 23 26 32 39 48 48 52 65 68 65 58 68 81 81 84 81 77 74 71 65 74 55
0 0 0 0 0 0 0 0 0 3 3 0 0 0 3 3 3 3 6 13 19 13 26 29 29 35 35 45 58 71 65 74 65 81 84 84 87 87 81 81 71 65 61
0 0 0 0 0 0 0 0 0 0 0 0 3 3 3 3 3 3 3 10 23 10 23 23 26 26 32 39 45 68 71 81 68 81 81 84 87 87 87 77 71 71 68
0 0 0 0 0 0 0 0 0 0 0 3 3 3 3 6 3 3 3 3 6 19 19 10 16 26 26 32 42 65 68 71 68 81 84 84 87 90 87 87 77 71 61
0 0 0 0 0 0 0 0 0 0 6 3 3 3 3 3 3 3 6 10 10 10 16 3 16 16 16 29 42 48 61 68 61 74 77 77 87 90 87 87 81 74 68
0 0 0 0 0 0 0 0 0 3 6 3 10 3 3 0 0 3 10 10 10 6 16 19 23 13 23 10 19 35 39 52 65 65 77 77 81 81 81 84 74 71 71
0 0 0 0 0 0 0 3 3 10 6 6 6 16 0 0 3 0 3 13 3 10 13 6 13 19 19 26 10 13 39 52 45 61 71 74 81 81 77 84 84 68 74
0 0 0 0 0 0 0 0 0 3 10 13 13 6 6 3 3 6 0 0 3 6 6 16 0 6 3 13 26 3 13 26 48 52 48 61 77 74 74 84 81 84 74
0 0 0 0 0 0 0 0 0 3 10 16 13 13 6 3 0 0 3 3 6 6 13 3 10 6 10 35 16 3 6 6 42 45 45 58 74 71 74 71 71 87 77
0 0 0 0 0 0 0 0 0 3 6 10 6 3 6 6 0 0 0 10 13 10 10 13 13 16 6 3 29 3 0 0 6 32 42 42 52 71 65 65 61 61 61
0 0 0 0 0 0 0 0 0 0 3 6 6 3 6 0 3 6 3 3 6 6 10 10 10 13 10 10 0 0 3 0 0 16 26 39 45 52 52 45 52 55 61
0 0 0 0 0 0 0 0 0 0 3 3 3 3 10 0 3 3 6 10 3 0 0 0 3 6 0 16 3 0 0 0 0 0 3 6 16 32 52 52 45 45 42
0 0 0 0 0 0 0 0 0 0 3 3 3 3 3 0 0 0 0 10 3 0 0 0 3 0 3 13 0 0 0 0 0 0 0 0 0 10 16 26 35 48 42
0 0 0 0 0 0 0 0 0 0 0 3 3 3 3 3 6 0 0 13 10 0 0 0 0 0 0 6 0 0 6 0 0 0 0 0 0 0 0 10 13 10 23
0 0 0 0 0 0 0 0 0 0 0 0 3 0 3 3 0 0 3 6 13 6 3 0 0 3 0 0 0 3 0 0 0 0 0 0 0 0 0 0 0 0 0
0 0 0 0 0 0 0 0 0 0 0 0 0 0 0 0 0 0 3 3 0 3 3 3 0 0 0 0 0 3 10 6 3 0 0 0 0 0 0 0 0 0 0
0 0 0 0 0 0 0 0 0 0 0 0 0 0 0 0 0 0 0 3 3 0 3 0 0 0 0 0 0 3 3 3 10 0 0 0 0 0 0 0 0 0 0
0 0 0 0 0 0 0 0 0 0 0 0 0 0 0 0 0 0 0 0 0 0 3 3 0 0 0 0 0 0 3 6 3 0 0 0 0 0 0 0 0 0 0
0 0 0 0 0 0 0 0 0 0 0 0 0 0 0 0 0 0 0 0 0 0 3 0 0 0 0 0 0 3 3 3 3 0 0 0 0 0 0 0 0 0 0
0 0 0 0 0 0 0 0 0 0 0 0 0 0 0 0 0 0 0 0 0 0 0 0 0 0 0 0 0 0 0 3 0 0 0 0 0 0 0 0 0 0 0
0 0 0 0 0 0 0 0 0 0 0 0 0 0 0 0 0 0 0 0 0 0 0 0 0 0 0 0 0 0 0 0 0 0 0 0 0 0 0 0 0 0 0
0 0 0 0 0 0 0 0 0 0 0 0 0 0 0 0 0 0 0 0 0 0 0 0 0 0 0 0 0 0 0 0 0 0 0 0 0 0 0 0 0 0 0
0 0 0 0 0 0 0 0 0 0 0 0 0 0 0 0 0 0 0 0 0 0 0 0 0 0 0 0 0 0 0 0 0 0 0 0 0 0 0 0 0 0 0
0 0 0 0 0 0 0 0 0 0 0 0 0 0 0 0 0 0 0 0 0 0 0 0 0 0 0 0 0 0 0 0 0 3 3 0 0 0 0 0 0 0 0
0 0 0 0 0 0 0 0 0 0 0 0 0 0 0 0 0 0 0 0 0 0 0 0 0 0 0 0 0 0 0 0 0 0 0 0 0 0 0 0 0 0 0
Height
5848 5845 5842 5839 5836 5833 5830 5828 5825 5823 5821 5820 5819 5820 5821 5822 5824 5826 5829 5832 5835 5839 5842 5846 5849 5852 5855 5858 5861 5864 5866 5868 5871 5873 5875 5877 5879 5881 5883 5885 5887 5889 5891
5846 5843 5840 5837 5833 5830 5827 5824 5822 5819 5817 5816 5815 5815 5816 5818 5820 5822 5825 5828 5832 5835 5839 5842 5846 5849 5853 5856 5859 5862 5865 5867 5870 5873 5875 5877 5879 5881 5883 5885 5887 5889 5891
5844 5841 5838 5834 5831 5827 5824 5821 5818 5815 5813 5812 5811 5811 5812 5814 5816 5818 5821 5824 5828 5832 5836 5839 5843 5846 5850 5853 5857 5860 5863 5866 5869 5871 5874 5876 5878 5881 5883 5885 5887 5889 5891
5842 5839 5836 5832 5828 5825 5821 5818 5815 5812 5810 5809 5808 5808 5809 5810 5812 5815 5817 5821 5824 5828 5832 5836 5839 5843 5847 5851 5854 5857 5861 5864 5867 5870 5873 5875 5878 5880 5882 5884 5886 5889 5891
5841 5837 5834 5830 5826 5822 5819 5815 5811 5809 5807 5806 5805 5805 5805 5807 5809 5811 5814 5817 5820 5824 5828 5832 5836 5840 5844 5848 5851 5855 5858 5862 5865 5868 5871 5874 5876 5879 5881 5883 5886 5888 5890
5839 5836 5832 5828 5824 5820 5816 5812 5809 5806 5804 5803 5802 5802 5802 5803 5805 5807 5810 5813 5817 5821 5825 5829 5833 5836 5841 5845 5849 5852 5856 5859 5863 5866 5869 5872 5875 5877 5880 5882 5884 5887 5889
5838 5834 5830 5826 5822 5818 5814 5810 5807 5804 5802 5801 5800 5800 5800 5800 5802 5804 5807 5810 5813 5817 5821 5825 5829 5833 5837 5841 5845 5849 5853 5856 5860 5863 5867 5870 5872 5875 5878 5880 5883 5885 5887
5836 5833 5829 5825 5820 5816 5812 5809 5805 5803 5800 5799 5798 5798 5798 5799 5799 5801 5803 5806 5810 5813 5817 5821 5825 5830 5834 5838 5842 5846 5849 5853 5857 5860 5864 5867 5870 5873 5876 5878 5881 5883 5885
5835 5831 5828 5824 5820 5815 5812 5808 5804 5802 5799 5798 5797 5797 5796 5796 5797 5799 5800 5803 5806 5810 5814 5818 5822 5826 5830 5834 5838 5842 5846 5850 5853 5857 5860 5864 5867 5870 5873 5875 5878 5880 5882
5834 5830 5827 5823 5819 5815 5811 5807 5804 5801 5799 5797 5796 5795 5795 5795 5795 5796 5798 5800 5802 5806 5810 5814 5819 5823 5827 5831 5835 5839 5843 5847 5850 5853 5857 5860 5863 5867 5869 5872 5874 5877 5879
5833 5830 5826 5822 5818 5814 5811 5807 5804 5801 5799 5797 5796 5795 5794 5793 5794 5794 5795 5797 5799 5803 5806 5811 5815 5819 5823 5827 5831 5836 5840 5843 5847 5850 5853 5856 5859 5863 5866 5868 5871 5873 5875
5832 5829 5825 5822 5818 5814 5811 5807 5804 5802 5799 5797 5796 5794 5793 5793 5793 5793 5793 5795 5797 5800 5804 5808 5811 5816 5819 5824 5828 5832 5836 5840 5843 5846 5849 5852 5855 5858 5861 5864 5867 5869 5872
5831 5828 5824 5821 5818 5814 5811 5808 5805 5802 5800 5798 5796 5794 5793 5792 5792 5792 5792 5793 5795 5798 5801 5805 5809 5813 5816 5820 5824 5828 5832 5836 5839 5842 5846 5849 5851 5854 5857 5860 5862 5865 5867
5829 5826 5823 5820 5817 5814 5811 5808 5805 5802 5800 5798 5796 5794 5793 5792 5791 5791 5792 5793 5794 5796 5799 5802 5806 5809 5813 5817 5821 5824 5828 5831 5835 5838 5841 5844 5847 5850 5852 5855 5857 5860 5862
5828 5825 5822 5819 5817 5814 5811 5808 5805 5802 5800 5798 5796 5794 5793 5792 5791 5790 5791 5792 5794 5795 5797 5800 5803 5806 5810 5813 5816 5820 5823 5827 5830 5833 5837 5839 5842 5845 5847 5850 5852 5854 5856
5826 5823 5821 5818 5816 5813 5810 5807 5805 5802 5800 5798 5796 5794 5793 5791 5790 5790 5790 5790 5792 5793 5795 5797 5800 5803 5806 5809 5812 5815 5819 5822 5825 5828 5831 5834 5836 5839 5841 5844 5846 5848 5850
5823 5821 5819 5817 5814 5812 5809 5807 5804 5801 5799 5797 5795 5793 5792 5791 5789 5789 5789 5789 5790 5791 5793 5795 5797 5800 5803 5806 5808 5811 5814 5817 5820 5823 5826 5828 5831 5833 5835 5838 5840 5842 5844
5820 5818 5816 5814 5812 5810 5807 5805 5803 5800 5798 5796 5794 5792 5791 5789 5788 5788 5787 5788 5788 5789 5790 5792 5794 5796 5799 5802 5804 5807 5809 5812 5815 5818 5820 5823 5825 5827 5829 5831 5834 5836 5838
5816 5814 5812 5811 5809 5807 5805 5803 5801 5798 5796 5794 5792 5791 5789 5788 5787 5786 5785 5785 5786 5786 5787 5789 5790 5793 5795 5797 5800 5802 5804 5807 5809 5812 5814 5816 5819 5821 5823 5825 5827 5829 5831
5812 5810 5808 5806 5805 5803 5801 5799 5798 5796 5794 5792 5790 5788 5787 5786 5785 5784 5783 5783 5783 5783 5784 5785 5787 5789 5791 5792 5795 5797 5799 5801 5803 5806 5808 5810 5812 5814 5816 5818 5820 5822 5823
5807 5805 5803 5801 5800 5798 5797 5795 5794 5792 5790 5789 5787 5786 5784 5783 5782 5781 5780 5780 5779 5780 5780 5781 5783 5784 5786 5788 5789 5791 5793 5795 5797 5799 5801 5804 5806 5808 5809 5811 5813 5814 5816
5801 5799 5797 5795 5794 5792 5791 5790 5788 5787 5786 5784 5783 5782 5781 5780 5778 5777 5776 5776 5776 5776 5777 5777 5778 5780 5781 5782 5784 5785 5787 5789 5791 5793 5795 5797 5799 5801 5802 5804 5805 5807 5808
5793 5791 5789 5788 5787 5786 5784 5783 5782 5781 5780 5779 5778 5777 5776 5775 5774 5773 5772 5772 5772 5772 5773 5773 5774 5774 5775 5777 5778 5779 5780 5782 5784 5786 5788 5790 5792 5793 5795 5796 5797 5798 5800
5784 5782 5781 5779 5778 5777 5776 5775 5774 5773 5773 5772 5772 5771 5771 5770 5769 5769 5768 5768 5767 5768 5768 5768 5769 5769 5770 5771 5772 5773 5774 5775 5777 5779 5781 5783 5784 5786 5787 5788 5789 5791 5791
5773 5772 5770 5769 5768 5767 5767 5766 5765 5765 5765 5764 5764 5764 5764 5764 5764 5763 5763 5762 5762 5763 5763 5763 5763 5764 5764 5765 5766 5767 5768 5769 5770 5772 5774 5776 5777 5778 5780 5781 5782 5782 5783
5762 5760 5758 5757 5756 5755 5755 5755 5755 5755 5755 5756 5756 5756 5756 5756 5756 5756 5756 5756 5756 5757 5757 5758 5758 5758 5759 5759 5760 5761 5762 5763 5764 5766 5767 5769 5770 5771 5772 5773 5774 5774 5775
Wind_Speed
16 17 17 17 17 18 18 17 17 16 16 15 15 16 17 19 19 21 23 24 24 25 25 25 24 23 21 20 19 18 17 16 15 15 15 15 15 15 14 14 13 13 12
16 17 18 18 18 18 18 17 17 17 16 15 15 15 17 18 19 20 23 24 25 25 25 26 25 24 23 21 21 20 19 18 17 16 16 16 16 15 15 15 13 13 12
17 17 18 18 18 18 18 18 17 16 15 14 14 14 16 18 19 20 22 24 25 26 26 26 26 26 24 24 22 22 21 19 19 18 18 17 17 16 16 15 14 13 12
17 18 18 19 18 18 18 18 17 16 14 13 13 13 15 17 18 20 22 24 25 27 26 27 27 27 25 25 24 23 23 21 20 19 19 18 17 16 16 15 15 14 13
17 18 19 19 19 19 19 18 17 14 12 12 11 12 14 16 18 20 22 24 26 26 27 27 28 28 27 26 25 24 24 22 21 21 20 19 18 17 16 16 16 15 14
18 18 19 20 20 19 18 18 15 13 11 10 10 11 13 15 17 20 22 24 26 27 27 27 27 28 28 27 26 26 25 24 23 22 22 21 20 18 18 17 17 16 15
18 19 20 20 19 18 18 17 15 13 10 9 9 9 11 13 16 18 21 23 26 27 27 27 28 28 29 27 27 26 26 25 25 24 23 22 21 20 19 18 17 17 16
17 19 19 19 19 19 18 17 15 12 10 8 7 7 9 11 14 17 19 22 25 27 27 27 28 29 29 28 28 27 26 26 25 25 24 22 22 21 21 20 19 18 18
17 19 19 20 19 19 18 17 14 12 9 7 5 6 7 9 12 15 18 21 24 26 27 28 29 28 29 28 29 28 27 26 26 25 24 23 22 21 21 21 20 20 19
17 18 19 19 19 19 18 17 15 12 10 7 5 5 5 7 10 13 17 20 22 26 28 28 28 29 30 29 28 29 28 27 26 26 25 25 24 23 22 22 21 21 21
16 17 18 19 19 19 18 16 15 13 10 8 6 5 5 6 8 11 14 18 20 24 26 28 28 29 29 29 28 28 28 28 27 26 25 26 25 24 24 23 23 22 22
16 17 18 19 19 18 17 16 15 13 11 8 6 5 4 5 6 8 11 15 18 21 24 26 27 27 28 29 28 28 28 28 28 27 26 25 26 26 25 24 24 24 24
16 17 17 18 18 17 17 16 15 13 11 9 7 6 4 4 5 7 9 12 16 20 22 25 26 27 28 28 28 28 28 28 28 28 27 26 25 25 26 25 25 25 25
16 16 17 18 17 16 16 16 15 13 11 10 8 6 5 4 4 6 8 11 14 17 20 23 25 26 27 28 28 29 29 29 28 28 27 27 26 26 26 26 26 26 26
16 16 17 17 17 16 16 15 14 13 12 10 9 7 6 5 4 6 7 9 12 15 18 21 23 24 25 25 27 28 29 29 29 29 28 28 28 27 27 27 27 27 26
17 17 17 17 17 16 16 15 14 13 12 11 9 8 7 5 5 5 7 9 11 13 16 19 21 22 23 23 24 26 27 27 28 29 29 29 28 28 28 28 29 29 28
18 18 17 17 17 16 16 15 14 14 12 11 10 9 7 6 5 6 7 9 11 12 14 17 20 21 22 23 23 24 27 27 28 28 27 28 29 29 29 28 28 28 28
19 19 19 18 17 17 16 16 15 14 13 11 11 10 8 8 7 6 7 9 10 12 14 17 18 20 22 23 23 24 26 26 27 28 28 28 29 29 29 29 29 29 30
21 21 20 20 19 18 17 17 16 15 14 13 11 10 9 9 8 8 8 9 11 13 14 16 17 19 20 21 23 24 25 26 27 28 28 28 29 29 29 29 29 30 30
23 23 22 22 21 20 19 18 17 16 15 14 13 12 11 10 9 9 9 10 12 13 15 16 18 19 20 21 22 23 24 26 27 28 28 28 28 28 29 29 29 30 31
25 25 25 24 23 22 21 21 20 18 17 16 15 13 12 11 11 11 11 11 12 13 15 16 18 19 20 21 22 23 24 24 25 26 27 28 28 28 28 29 29 29 30
27 27 27 27 26 24 24 23 22 21 20 18 17 16 15 14 13 13 13 13 13 14 15 16 18 19 20 21 22 23 24 25 25 26 27 27 28 28 28 28 29 30 31
30 30 30 30 29 28 26 25 25 24 22 21 20 19 18 16 16 15 14 14 14 15 16 17 18 19 20 20 22 23 24 25 26 26 27 27 27 28 29 29 29 30 31
33 33 33 32 32 31 30 29 28 27 25 24 23 22 21 20 19 17 16 16 16 16 16 17 18 19 20 20 21 22 24 24 25 26 26 27 27 28 28 28 29 29 29
36 36 36 35 35 34 33 32 31 30 28 27 26 24 23 23 22 21 20 19 18 18 18 18 19 19 19 20 21 21 22 23 23 25 25 26 26 27 27 28 27 28 29
40 39 39 38 37 37 36 35 35 33 32 30 29 27 26 25 25 24 22 21 20 20 20 19 19 19 19 19 20 21 21 22 23 24 24 25 26 26 27 27 27 27 28
Wind_Direction
330 330 329 328 326 324 320 314 310 304 295 285 274 262 252 245 238 229 224 221 219 215 211 209 208 204 202 202 201 198 195 194 189 186 183 180 178 178 176 176 175 173 171
334 333 332 331 328 325 323 317 312 306 296 286 275 263 251 243 235 228 222 219 218 215 211 210 207 206 204 201 201 201 197 195 192 190 189 186 184 183 184 184 182 180 178
337 336 335 334 331 328 325 320 316 308 297 287 276 264 251 243 233 227 222 218 215 214 213 210 209 208 205 202 201 202 199 197 196 195 194 192 190 190 191 192 192 190 190
340 339 338 336 334 332 329 324 319 312 299 287 276 265 251 240 232 226 222 219 215 214 213 210 210 209 206 204 203 202 200 198 198 199 197 196 196 196 197 198 197 197 198
341 340 339 338 336 334 332 329 323 316 302 287 276 265 252 239 231 226 222 219 215 214 213 211 212 211 207 205 204 202 202 200 200 201 201 200 200 202 202 203 203 203 206
343 343 341 340 338 337 336 333 328 322 308 291 278 268 254 241 230 224 222 220 217 215 213 212 212 210 207 206 205 204 204 204 204 204 205 205 206 206 207 207 208 208 211
345 345 345 345 344 343 341 339 335 329 319 300 284 269 254 241 230 224 222 220 217 214 213 211 210 207 207 206 207 207 207 206 207 206 207 208 209 211 210 212 212 212 214
344 347 349 349 348 348 346 344 340 336 328 311 293 272 254 241 231 226 223 217 215 214 213 212 209 207 208 208 208 208 208 208 208 209 209 211 212 215 217 216 216 218 219
343 346 349 349 350 350 350 349 347 343 337 324 303 279 258 246 233 227 222 218 215 213 212 211 209 209 210 210 210 210 210 210 210 211 212 213 214 217 220 220 220 221 223
342 346 348 349 350 351 352 353 353 349 344 334 316 291 268 248 237 229 224 219 214 213 213 211 210 210 210 212 213 211 212 212 212 214 214 215 216 219 223 223 225 226 227
338 343 347 348 349 351 352 353 355 353 349 341 328 310 281 253 241 233 226 218 216 211 211 211 211 212 211 212 215 214 214 214 216 217 217 218 219 221 225 226 228 229 230
335 340 343 346 347 350 353 354 355 356 353 348 335 322 301 263 246 236 227 218 213 210 211 212 212 213 212 213 216 217 217 217 218 220 222 222 223 225 227 230 231 232 233
333 337 341 343 346 348 351 354 356 356 356 351 342 330 315 278 247 233 222 216 210 209 210 211 214 214 215 216 218 219 219 219 220 222 225 227 227 228 230 232 234 234 236
327 332 337 341 343 345 347 350 353 353 351 349 345 337 321 290 261 231 222 215 209 208 209 212 215 216 218 221 220 221 222 221 223 225 227 229 230 231 233 235 237 237 239
321 325 330 335 338 340 342 344 346 348 347 346 343 339 325 301 275 240 224 215 210 210 210 212 214 217 219 219 220 222 225 225 226 228 230 232 234 235 236 236 238 238 240
315 319 323 327 330 333 334 337 340 342 343 340 337 334 324 310 283 247 230 220 219 219 217 216 216 217 217 219 221 223 225 225 228 230 232 234 236 238 239 240 241 242 243
309 313 315 319 321 324 326 327 329 332 333 332 330 327 321 311 289 260 242 230 224 220 217 217 217 219 219 221 222 225 226 227 228 231 232 234 236 239 241 242 242 244 245
304 306 308 310 312 315 317 319 320 323 325 324 322 320 313 304 294 274 254 239 230 225 222 220 220 221 222 225 226 229 228 229 231 232 235 236 238 240 242 242 244 245 246
302 301 302 303 304 306 308 310 312 314 315 315 313 312 310 301 292 280 260 244 237 233 230 227 225 224 226 228 230 231 232 232 232 234 237 239 240 241 242 243 245 247 248
301 300 298 297 297 298 299 300 302 304 304 304 303 301 300 296 288 279 265 252 243 238 234 232 230 229 231 232 233 235 236 235 236 238 240 241 241 242 243 244 246 249 250
300 298 296 294 293 292 292 292 293 294 295 295 293 291 291 290 284 276 268 258 249 242 237 234 234 234 233 234 235 236 236 237 237 238 239 241 242 245 246 247 248 251 253
296 295 294 291 289 288 287 287 286 286 286 287 286 284 283 281 278 273 267 260 253 245 240 239 238 237 236 235 236 238 238 237 238 238 240 241 244 247 249 248 250 252 255
294 292 291 289 286 284 283 282 282 281 280 279 279 278 277 276 272 269 264 259 255 248 244 242 242 240 240 239 240 240 239 238 239 240 241 243 246 249 251 252 252 255 256
293 291 289 287 284 281 279 278 277 276 275 273 272 272 272 271 269 265 262 259 255 252 249 247 245 244 244 244 242 242 241 242 242 243 243 245 247 249 250 253 255 256 258
291 289 287 285 282 279 276 274 273 272 271 269 268 267 266 267 265 263 260 258 255 252 252 251 251 249 246 244 244 243 243 242 243 244 245 246 248 251 253 254 256 258 259
288 287 284 282 280 277 274 271 269 268 267 266 265 263 262 263 262 261 259 257 255 252 252 252 251 249 247 247 247 247 247 246 246 245 246 248 250 252 254 256 259 260 262